Home   Weather   The Hague   Past weeks

Flag for Netherlands Past Weather in The Hague, Netherlands — Yesterday and Last 2 Weeks

46 °F


Feels Like: 46 °F
Forecast: 46 / 56 °F
Wind: 1 mph from North

Location: Rotterdam Zestienhoven Airport

Current Time: Oct 25, 2016 at 7:03:16 AM

Latest Report: Oct 25, 2016 at 6:25 AM

Visibility: 2 mi

Pressure: 30.09 "Hg

Humidity: 100%

Dew Point: 46 °F

Location of The HagueLocation

Past Weather in The Hague — Graph


The Hague Temperature Yesterday

Maximum temperature yesterday: 50 °F (at 1:25 PM)
Minimum temperature yesterday: 39 °F (at 12:25 AM)
Average temperature yesterday: 45 °F

High & Low Weather Summary for the Past Weeks

High68 °F (Oct 16, 3:25 PM)100% (Oct 10, 5:55 AM)30.24 "Hg (Oct 10, 5:55 AM)
Low30 °F (Oct 23, 4:55 AM)56% (Oct 16, 3:55 PM)29.65 "Hg (Oct 15, 12:55 AM)
Average49 °F86%30.00 "Hg
* Reported Oct 10 5:25 AM — Oct 25 5:55 AM, The Hague, Weather by CustomWeather, © 2016

Note: Actual official high and low records may vary slightly from our data, if they occured in-between our weather recording intervals... More about our weather records


The Hague Weather History for the Previous 24 Hours

Scroll right to see more
Time TempWeatherWind HumidityBarometerVisibility
5:55 AM
Tue, Oct 25
46 °FFog.2 mph100%30.09 "Hg2 mi
5:25 AM48 °FFog.3 mph94%30.07 "Hg2 mi
4:55 AM46 °FFog.2 mph93%30.07 "Hg2 mi
4:25 AM46 °FFog.1 mph93%30.07 "Hg2 mi
3:55 AM46 °FFog.1 mph93%30.07 "Hg3 mi
3:25 AM46 °FFog.2 mph93%30.07 "Hg3 mi
2:55 AM46 °FFog.2 mph93%30.04 "Hg3 mi
2:25 AM46 °FFog.3 mph93%30.04 "Hg3 mi
1:55 AM46 °FFog.2 mph93%30.04 "Hg3 mi
1:25 AM46 °FFog.2 mph93%30.01 "Hg3 mi
12:55 AM46 °FFog.2 mph93%30.01 "Hg3 mi
12:25 AM46 °FFog.2 mph93%30.01 "Hg3 mi
11:55 PM
Mon, Oct 24
46 °FFog.3 mph93%30.01 "Hg3 mi
11:25 PM46 °FFog.5 mph93%29.98 "Hg3 mi
10:55 PM46 °FFog.6 mph93%29.98 "Hg3 mi
10:25 PM46 °FFog.3 mph93%29.98 "Hg3 mi
9:55 PM46 °FFog.3 mph93%29.98 "Hg3 mi
9:25 PM46 °FOvercast.3 mph93%29.98 "Hg4 mi
8:55 PM46 °FOvercast.3 mph93%29.95 "Hg4 mi
8:25 PM46 °FOvercast.6 mph93%29.95 "Hg4 mi
7:55 PM46 °FOvercast.8 mph93%29.95 "Hg4 mi
7:25 PM46 °FOvercast.7 mph93%29.95 "Hg4 mi
6:55 PM48 °FOvercast.9 mph87%29.95 "Hg4 mi
6:25 PM48 °FOvercast.9 mph87%29.92 "Hg5 mi
5:55 PM48 °FOvercast.9 mph87%29.92 "Hg5 mi
5:25 PM48 °FMostly cloudy.8 mph87%29.92 "Hg5 mi
4:55 PM48 °FClear.9 mph87%29.92 "Hg6 mi
4:25 PM50 °FPassing clouds.10 mph82%29.92 "Hg6 mi
3:55 PM50 °FPassing clouds.9 mph82%29.89 "Hg6 mi
3:25 PM50 °FClear.9 mph82%29.89 "HgN/A
2:55 PM50 °FClear.9 mph82%29.89 "HgN/A
2:25 PM50 °FClear.10 mph82%29.89 "HgN/A
1:55 PM50 °FClear.9 mph82%29.89 "HgN/A
1:25 PM50 °FClear.10 mph82%29.89 "HgN/A
12:55 PM48 °FClear.9 mph87%29.89 "HgN/A
12:25 PM48 °FClear.10 mph87%29.89 "HgN/A
11:55 AM46 °FClear.8 mph87%29.92 "Hg6 mi
11:25 AM46 °FClear.8 mph87%29.92 "Hg6 mi
10:55 AM46 °FClear.10 mph87%29.92 "Hg6 mi
10:25 AM46 °FClear.10 mph87%29.92 "Hg6 mi
9:55 AM45 °FClear.10 mph93%29.89 "Hg6 mi
9:25 AM45 °FClear.9 mph87%29.89 "Hg6 mi
8:55 AM45 °FClear.8 mph87%29.89 "Hg5 mi
8:25 AM43 °FClear.8 mph93%29.89 "Hg5 mi
7:55 AM43 °FClear.7 mph93%29.89 "Hg4 mi
7:25 AM43 °FClear.8 mph93%29.89 "Hg4 mi
Weather by CustomWeather, © 2016

See weather overviewHow to use our weather pages